COSMOS 1275 DEB, 12671

Orbit data source: Space-Track

COSMOS 1275 DEB, 12671 is space debris in LEO originally from a launch on Thu, 04 Jun 1981 UTC launched from the Plesetsk Missile And Space Complex (PKMTR). Debris objects in space refer to the collection of defunct objects orbiting the Earth. Examples of debris include non-operational satellites, rocket bodies, and fragments generated from explosions, collisions, or faulty payload assembly.

Loading next visibility...
COSMOS 1275 DEB details
Identifier
12671, 1981-053AB
Orbit
LEO
Last TLE update9 hours ago
Origin
Flag of CISVMF (CIS)
ManufacturerUnknown
MissionSpacecraft
Bus & MotorUnknown
MassUnknown
Launch date (UTC)
1981-06-04 (44 years ago)
Launch vehicleUnknown
Launch site
Plesetsk Missile And Space Complex (PKMTR)
Object type
Payload
Rocket body
Debris
Shape & HBRUnknown
Radar Cross SectionSmall (<0.1 m²)

Expand to show TLE details & history

TLE from 9 hours ago
0 COSMOS 1275 DEB
1 12671U 81053AB  24361.15286119  .00003858  00000-0  22065-2 0  9994
2 12671  82.9075 254.4719 0023634  48.5388 311.7812 14.09178242203990
Epoch: 2024-12-26T03:40Z
Definitive object data (Epoch: 2024-12-26T03:40:07.206Z)
Latitude0.00001°
Longitude104.30553°
Altitude853.75 km
Speed7.432 km/s
True Right ascension16h 57m 53s
True Declination0° 00' 00"
Sunlit
Object was in daylight at TLE epoch
Visualization TLE readout
Latitude28.96091°
Longitude107.94874°
Altitude849.544 km
Speed7.439 km/s
Apparent Right ascension19h 53m 54s
Apparent Declination-4° 29' 25"
Sunlit
Object is in daylight
Visualization observer readout
Local Sidereal Time11:41:03
Azimuth70.806° E
Elevation-27.974°
Doppler factor1
Orbital elements
Apogee altitude876.393 km
Perigee altitude842.183 km
Semi-major axis7,237.425 km
Eccentricity0.0023634
Inclination82.9075°
RAAN254.4719°
Arg. of periapsis48.5388°
True anomaly311.57885°
Mean anomaly311.7812°
Eccentric anomaly311.68006°
Mean motion3.52506 °/min
BSTAR0.0022065
Orbital period102.13 mins
Loading maneuver chart data...
Loading historical data...
Loading historical data...
Loading historical data...
Loading historical data...
Loading historical data...
Loading historical data...
Loading historical data...

COSMOS 1275 DEB Visibility forecast

Observer location: undefined°, undefined

Span
Click to sort rows by Start time (UTC) header in descending order
Start Az.
Max El. time (UTC)
Max El. Az.
Max El.
End time (UTC)
End Az.
10 mins2024-12-26 17:24:34.081Z163.76° S2024-12-26 17:29:34.081Z83.464° E37.429°2024-12-26 17:34:34.081Z18.295° NNE
6 mins2024-12-26 19:10:34.081Z261.418° W2024-12-26 19:12:34.081Z288.485° WNW18.859°2024-12-26 19:16:34.081Z335.099° NNW
7 mins2024-12-27 04:07:34.081Z29.369° NE2024-12-27 04:10:34.081Z75.738° E26.176°2024-12-27 04:14:34.081Z129.241° SE
8 mins2024-12-27 05:49:34.081Z327.857° NNW2024-12-27 05:53:34.081Z268.479° W29.382°2024-12-27 05:57:34.081Z213.205° SW
|